Weather in Novoyurevka

Ukraine / Mykolaiv District     47°37′44″N   32°40′51″E
temp.,
°C
wind,
m/s
gust,
m/s
humid.,
%
clouds,
%
prec.,
mm/h
press.,
hPa
HPBL,
m
17 august, wed
wed1700:00+21wsw23750 0.1 101046
03:00+20ssw11820 0.1 100911
06:00+20sse22884 0.0 100926
09:00+25ssw336432 0.0 1009489
12:00+29ssw334564 0.0 10091745
15:00+30ssw2238100 0.2 10082242
18:00+28nnw224866 0.1 1008298
21:00+23nw347280 1.6 100997
18 august, thu
thu1800:00+21ne33785 0.2 100852
03:00+20ne34815 0.3 100871
06:00+20ene22847 0.0 100826
09:00+25e23615 0.0 1008466
12:00+29e224243 0.0 10081675
15:00+32e223587 0.0 10072630
18:00+29ne464199 0.1 1007228
21:00+26s255496 0.1 1008160
19 august, fri
fri1900:00+23sw226641 0.0 100824
03:00+23nne11655 0.0 100813
06:00+22nne22630 0.1 100821
09:00+27n22460 0.1 1009421
12:00+31ene22380 0.0 10091870
15:00+33ne323198 0.0 10092518
18:00+32ne443346 0.0 10081077
21:00+26nne510502 0.0 1009214
20 august, sat
sat2000:00+23ene366537 0.3 1011140
03:00+22nne347475 0.3 101070
06:00+21ne36821 0.0 1012146
09:00+25ne45640 0.0 1012546
12:00+30ene45410 0.0 10111468
15:00+32ene45352 0.0 10102254
18:00+30e3540100 0.1 1010526
21:00+26ne46521 0.4 1010109
21 august, sun
sun2100:00+24e34571 0.0 101171
03:00+22ene33590 0.0 101138
06:00+21ne23600 0.0 101129
09:00+26ene45482 0.0 1011485
12:00+31ese44429 0.0 10101961
15:00+32e643690 0.1 10092442
18:00+29e673920 0.3 10101118
21:00+24ene375797 0.8 1010174